Date String (YYYY-MM-DD hh:mm:ss) UTC,Instrument flags,absolute air pressure of the measurement (hPa),sample flow rate (lpm),inlet stack bypass flow (lpm),air temperature of the measurement (°C),ambient temperature measured by the external sensor (°C),aerosol sample conditioner tube jacket temperature (°C),OPC LED temperature (°C),internal box temperature (°C),relative humidity of the measurement (%),span deviation,mass concentration of particles derived from Lorenz-Mie calculation of OPC scattering (μg/m³),mass concentration of particles derived from Lorenz-Mie calculation of OPC scattering (μg/m³),mass concentration of particles derived from Lorenz-Mie calculation of OPC scattering (μg/m³)
DateTimeUTC,F1_M11,P_M11,Q1_M11,Q2_M11,T1_M11,T2_M11,T3_M11,T4_M11,T5_M11,U1_M11,ZSPAN_M11,X2_M11,X0_M11,X1_M11
2023-07-26 03:00:00,SystemResetWarning,0833.9,4.99,000.00,028.8,025.5,000.0,037.0,030.3,24.2,0000.0,0003.62,0008.32,0002.50
2023-07-26 03:01:00,SystemResetWarning,0833.8,5.02,000.00,028.7,024.5,000.0,036.9,030.1,24.4,0000.0,0003.62,0009.07,0002.49
2023-07-26 03:02:00,SystemResetWarning,0833.9,5.00,000.00,028.6,024.7,000.0,036.8,030.0,24.6,0000.0,0003.59,0008.99,0002.48
2023-07-26 03:03:00,SystemResetWarning,0833.9,5.00,000.00,028.6,025.1,000.0,036.9,029.9,24.6,0000.0,0003.62,0009.88,0002.49
2023-07-26 03:04:00,SystemResetWarning,0834.0,5.01,000.00,028.6,025.6,000.0,036.9,030.0,24.7,0000.0,0003.69,0010.60,0002.50
2023-07-26 03:05:00,SystemResetWarning,0833.9,5.00,000.00,028.6,026.1,000.0,036.9,030.1,24.7,0000.0,0003.73,0010.66,0002.50
2023-07-26 03:06:00,SystemResetWarning,0834.0,4.99,000.00,028.6,026.5,000.0,037.0,030.2,24.7,0000.0,0003.72,0010.52,0002.48
2023-07-26 03:07:00,SystemResetWarning,0834.1,5.00,000.00,028.6,026.9,000.0,037.0,030.3,24.6,0000.0,0003.75,0011.00,0002.50
2023-07-26 03:08:00,SystemResetWarning,0834.1,5.01,000.00,028.7,027.2,000.0,037.0,030.4,24.6,0000.0,0003.72,0010.98,0002.50
2023-07-26 03:09:00,SystemResetWarning,0834.1,5.01,000.00,028.7,027.5,000.0,037.0,030.5,24.6,0000.0,0003.72,0011.36,0002.51
2023-07-26 03:10:00,SystemResetWarning,0834.1,4.99,000.00,028.8,027.5,000.0,037.0,030.6,24.5,0000.0,0003.75,0011.46,0002.52
2023-07-26 03:11:00,SystemResetWarning,0834.1,4.98,000.00,028.8,026.1,000.0,037.0,030.4,24.7,0000.0,0003.76,0011.36,0002.52
2023-07-26 03:12:00,SystemResetWarning,0834.1,5.02,000.00,028.7,025.5,000.0,036.9,030.3,24.9,0000.0,0003.79,0010.53,0002.53
2023-07-26 03:13:00,SystemResetWarning,0834.1,4.99,000.00,028.7,025.7,000.0,036.9,030.2,25.0,0000.0,0003.81,0010.67,0002.55
2023-07-26 03:14:00,SystemResetWarning,0834.1,4.98,000.00,028.7,026.1,000.0,037.0,030.2,25.1,0000.0,0003.79,0009.67,0002.53
2023-07-26 03:15:00,SystemResetWarning,0834.1,5.01,000.00,028.7,026.5,000.0,037.0,030.3,24.9,0000.0,0003.72,0009.08,0002.54
2023-07-26 03:16:00,SystemResetWarning,0834.2,5.01,000.00,028.7,026.8,000.0,037.0,030.4,24.5,0000.0,0003.65,0009.52,0002.53
2023-07-26 03:17:00,SystemResetWarning,0834.2,5.00,000.00,028.8,027.1,000.0,037.1,030.4,24.4,0000.0,0003.64,0009.67,0002.53
2023-07-26 03:18:00,SystemResetWarning,0834.2,5.00,000.00,028.8,027.4,000.0,037.1,030.5,24.2,0000.0,0003.60,0009.33,0002.53
2023-07-26 03:19:00,SystemResetWarning,0834.2,5.00,000.00,028.9,027.5,000.0,037.1,030.6,24.1,0000.0,0003.60,0010.28,0002.54
2023-07-26 03:20:00,SystemResetWarning,0834.4,4.98,000.00,028.9,026.2,000.0,037.0,030.5,24.0,0000.0,0003.57,0010.13,0002.54
2023-07-26 03:21:00,SystemResetWarning,0834.2,5.02,000.00,028.8,025.5,000.0,036.9,030.3,24.0,0000.0,0003.55,0009.92,0002.53
2023-07-26 03:22:00,SystemResetWarning,0834.2,5.00,000.00,028.8,025.7,000.0,037.0,030.2,24.1,0000.0,0003.55,0010.01,0002.52
2023-07-26 03:23:00,SystemResetWarning,0834.4,5.00,000.00,028.7,026.0,000.0,037.0,030.2,24.2,0000.0,0003.52,0009.85,0002.51
2023-07-26 03:24:00,SystemResetWarning,0834.3,5.00,000.00,028.7,026.4,000.0,037.1,030.3,24.1,0000.0,0003.50,0010.04,0002.51
2023-07-26 03:25:00,SystemResetWarning,0834.6,5.01,000.00,028.8,026.8,000.0,037.1,030.4,23.8,0000.0,0003.52,0010.80,0002.52
2023-07-26 03:26:00,SystemResetWarning,0834.3,5.00,000.00,028.8,027.1,000.0,037.1,030.5,23.7,0000.0,0003.56,0010.88,0002.54
2023-07-26 03:27:00,SystemResetWarning,0834.4,5.00,000.00,028.9,027.4,000.0,037.1,030.6,23.8,0000.0,0003.57,0010.25,0002.55
2023-07-26 03:28:00,SystemResetWarning,0834.4,4.99,000.00,028.9,026.9,000.0,037.1,030.6,23.8,0000.0,0003.57,0010.29,0002.55
2023-07-26 03:29:00,SystemResetWarning,0834.4,5.00,000.00,028.8,025.2,000.0,037.0,030.3,23.7,0000.0,0003.61,0011.54,0002.56
2023-07-26 03:30:00,SystemResetWarning,0834.4,5.02,000.00,028.8,024.5,000.0,036.9,030.1,23.8,0000.0,0003.63,0010.72,0002.56
2023-07-26 03:31:00,SystemResetWarning,0834.5,4.99,000.00,028.7,024.8,000.0,036.9,030.0,24.0,0000.0,0003.68,0010.46,0002.56
2023-07-26 03:32:00,SystemResetWarning,0834.5,4.99,000.00,028.6,025.3,000.0,036.9,030.0,24.3,0000.0,0003.67,0010.42,0002.57
2023-07-26 03:33:00,SystemResetWarning,0834.5,5.01,000.00,028.6,025.7,000.0,037.0,030.1,24.5,0000.0,0003.65,0010.29,0002.58
2023-07-26 03:34:00,SystemResetWarning,0834.5,5.01,000.00,028.6,026.2,000.0,037.0,030.2,24.1,0000.0,0003.68,0010.34,0002.59
2023-07-26 03:35:00,SystemResetWarning,0835.1,4.99,000.00,028.6,026.6,000.0,037.0,030.3,24.1,0000.0,0003.74,0010.19,0002.62
2023-07-26 03:36:00,SystemResetWarning,0835.0,5.00,000.00,028.7,026.9,000.0,037.0,030.3,23.9,0000.0,0003.78,0009.71,0002.63
2023-07-26 03:37:00,SystemResetWarning,0835.0,5.00,000.00,028.7,027.2,000.0,037.1,030.4,23.7,0000.0,0003.78,0009.66,0002.62
2023-07-26 03:38:00,SystemResetWarning,0835.0,5.01,000.00,028.8,027.5,000.0,037.1,030.5,23.7,0000.0,0003.80,0009.75,0002.62
2023-07-26 03:39:00,SystemResetWarning,0834.6,4.99,000.00,028.8,027.7,000.0,037.1,030.6,23.6,0000.0,0003.83,0009.46,0002.64
2023-07-26 03:40:00,SystemResetWarning,0834.7,4.98,000.00,028.9,026.6,000.0,037.0,030.5,23.6,0000.0,0003.81,0008.40,0002.65
2023-07-26 03:41:00,SystemResetWarning,0835.0,5.01,000.00,028.8,024.9,000.0,036.9,030.2,23.8,0000.0,0003.78,0009.08,0002.62
2023-07-26 03:42:00,SystemResetWarning,0835.0,5.01,000.00,028.7,024.6,000.0,036.9,030.1,24.0,0000.0,0003.75,0009.29,0002.62
2023-07-26 03:43:00,SystemResetWarning,0834.6,5.00,000.00,028.6,024.9,000.0,036.9,030.0,24.3,0000.0,0003.74,0009.67,0002.63
2023-07-26 03:44:00,SystemResetWarning,0834.7,5.00,000.00,028.6,025.4,000.0,036.9,030.0,24.4,0000.0,0003.80,0010.41,0002.65
2023-07-26 03:45:00,SystemResetWarning,0834.9,5.00,000.00,028.6,025.8,000.0,037.0,030.1,24.4,0000.0,0003.78,0010.76,0002.65
2023-07-26 03:46:00,SystemResetWarning,0835.2,5.00,000.00,028.6,026.3,000.0,037.0,030.2,24.3,0000.0,0003.78,0010.77,0002.66
2023-07-26 03:47:00,SystemResetWarning,0834.9,5.01,000.00,028.6,026.7,000.0,037.0,030.3,24.3,0000.0,0003.75,0010.55,0002.66
2023-07-26 03:48:00,SystemResetWarning,0834.7,5.00,000.00,028.7,027.0,000.0,037.0,030.4,24.6,0000.0,0003.73,0010.57,0002.67
2023-07-26 03:49:00,SystemResetWarning,0834.9,5.00,000.00,028.7,027.3,000.0,037.1,030.4,24.3,0000.0,0003.70,0010.75,0002.68
2023-07-26 03:50:00,SystemResetWarning,0834.7,5.00,000.00,028.8,027.5,000.0,037.1,030.5,24.2,0000.0,0003.72,0011.35,0002.68
2023-07-26 03:51:00,SystemResetWarning,0834.7,5.00,000.00,028.8,027.7,000.0,037.1,030.6,24.3,0000.0,0003.73,0011.19,0002.69
2023-07-26 03:52:00,SystemResetWarning,0834.7,4.98,000.00,028.9,027.2,000.0,037.1,030.6,24.5,0000.0,0003.74,0010.46,0002.73
2023-07-26 03:53:00,SystemResetWarning,0834.7,5.00,000.00,028.8,025.3,000.0,037.0,030.3,24.5,0000.0,0003.77,0010.37,0002.75
2023-07-26 03:54:00,SystemResetWarning,0835.0,5.00,000.00,028.7,024.6,000.0,036.9,030.2,24.7,0000.0,0003.79,0010.00,0002.75
2023-07-26 03:55:00,SystemResetWarning,0835.2,5.01,000.00,028.7,024.8,000.0,036.9,030.0,25.0,0000.0,0003.75,0009.57,0002.76
2023-07-26 03:56:00,SystemResetWarning,0835.2,5.01,000.00,028.6,025.2,000.0,036.9,030.0,25.1,0000.0,0003.79,0009.92,0002.76
2023-07-26 03:57:00,SystemResetWarning,0835.1,4.99,000.00,028.6,025.7,000.0,037.0,030.1,25.2,0000.0,0003.77,0010.23,0002.75
2023-07-26 03:58:00,SystemResetWarning,0835.0,5.00,000.00,028.6,026.2,000.0,037.0,030.2,25.2,0000.0,0003.78,0010.31,0002.76
2023-07-26 03:59:00,SystemResetWarning,0835.2,5.01,000.00,028.6,026.6,000.0,037.0,030.3,25.2,0000.0,0003.86,0010.51,0002.77
